Location: Hamilton Branch State Park
(33.7552°N, 82.2209°W)
Time: 06:30:35
(UTC-04:00)

Hubble Space Telescope - Pass Details

Date: 21 September 2019
Orbit: 536 x 540 km, 28.5° (Epoch: 13 October)

Event Time Altitude Azimuth Distance (km) Brightness Sun altitude
Exits shadow 05:12:00 20° 141° (SE) 1,252 2.8 -26.1°
Drops below altitude 10° 05:13:38 10° 126° (SE) 1,777 3.8 -25.8°
Sets 05:16:02 0° 116° (ESE) 2,667 5.0 -25.3°
